• In Kazakhstan
  • List of Countries
  • For 7 days
  • Water Temperature
  • Weather Map
  • News
  • Weather Widgets
  • user-avatar
    Login

    Hourly Weather Baraki Barak

    Today, 22 August, Thursday

    Time Temperature Precipitation Wind Pressure Humidity
    00:00 +21°C° 0 mm 1 mps 597 mmHg 24%
    01:00 +21°C° 0 mm 1 mps 597 mmHg 25%
    02:00 +20°C° 0 mm 1 mps 596 mmHg 26%
    03:00 +19°C° 0 mm 1 mps 596 mmHg 27%
    04:00 +16°C° 0 mm 0 mps 596 mmHg 28%
    05:00 +16°C° 0 mm 0 mps 596 mmHg 29%
    06:00 +17°C° 0 mm 0 mps 597 mmHg 25%
    07:00 +21°C° 0 mm 1 mps 598 mmHg 22%
    08:00 +22°C° 0 mm 1 mps 599 mmHg 19%
    09:00 +24°C° 0 mm 1 mps 599 mmHg 17%
    10:00 +26°C° 0 mm 1 mps 599 mmHg 15%
    11:00 +27°C° 0 mm 1 mps 600 mmHg 12%
    12:00 +28°C° 0 mm 1 mps 600 mmHg 11%
    13:00 +30°C° 0 mm 1 mps 600 mmHg 9%
    14:00 +31°C° 0 mm 2 mps 600 mmHg 8%
    15:00 +31°C° 0 mm 2 mps 600 mmHg 8%
    16:00 +31°C° 0 mm 2 mps 600 mmHg 8%
    17:00 +33°C° 0 mm 3 mps 600 mmHg 7%
    18:00 +30°C° 0 mm 3 mps 600 mmHg 13%
    19:00 +28°C° 0 mm 3 mps 599 mmHg 19%
    20:00 +26°C° 0 mm 2 mps 599 mmHg 25%
    21:00 +25°C° 0 mm 2 mps 599 mmHg 29%
    22:00 +24°C° 0 mm 2 mps 599 mmHg 34%
    23:00 +23°C° 0 mm 1 mps 599 mmHg 39%

    Tomorrow, 23 August, Friday

    Time Temperature Precipitation Wind Pressure Humidity
    00:00 +23°C° 0 mm 1 mps 598 mmHg 40%
    01:00 +22°C° 0 mm 1 mps 598 mmHg 42%
    02:00 +19°C° 0 mm 0 mps 598 mmHg 43%
    03:00 +19°C° 0 mm 0 mps 597 mmHg 44%
    04:00 +18°C° 0 mm 0 mps 597 mmHg 44%
    05:00 +17°C° 0 mm 0 mps 597 mmHg 44%
    06:00 +19°C° 0 mm 0 mps 598 mmHg 40%
    07:00 +20°C° 0 mm 0 mps 599 mmHg 35%
    08:00 +22°C° 0 mm 0 mps 599 mmHg 31%
    09:00 +23°C° 0 mm 0 mps 600 mmHg 27%
    10:00 +27°C° 0 mm 1 mps 600 mmHg 24%
    11:00 +28°C° 0 mm 1 mps 601 mmHg 20%
    12:00 +29°C° 0 mm 1 mps 601 mmHg 17%
    13:00 +30°C° 0 mm 1 mps 601 mmHg 14%
    14:00 +32°C° 0 mm 2 mps 601 mmHg 11%
    15:00 +32°C° 0 mm 2 mps 600 mmHg 11%
    16:00 +33°C° 0 mm 3 mps 600 mmHg 11%
    17:00 +33°C° 0 mm 3 mps 600 mmHg 11%
    18:00 +32°C° 0 mm 4 mps 600 mmHg 14%
    19:00 +29°C° 0 mm 4 mps 600 mmHg 17%
    20:00 +28°C° 0 mm 4 mps 599 mmHg 20%
    21:00 +27°C° 0 mm 3 mps 599 mmHg 23%
    22:00 +25°C° 0 mm 3 mps 599 mmHg 26%
    23:00 +24°C° 0 mm 2 mps 599 mmHg 29%

    Day after tomorrow, 24 August, Saturday

    Time Temperature Precipitation Wind Pressure Humidity
    00:00 +23°C° 0 mm 1 mps 599 mmHg 30%
    01:00 +22°C° 0 mm 1 mps 598 mmHg 31%
    02:00 +21°C° 0 mm 1 mps 598 mmHg 32%
    03:00 +21°C° 0 mm 1 mps 597 mmHg 32%
    04:00 +20°C° 0 mm 1 mps 597 mmHg 33%
    05:00 +17°C° 0 mm 0 mps 597 mmHg 33%
    06:00 +21°C° 0 mm 1 mps 597 mmHg 31%
    07:00 +22°C° 0 mm 1 mps 598 mmHg 28%
    08:00 +23°C° 0 mm 1 mps 599 mmHg 25%
    09:00 +25°C° 0 mm 1 mps 599 mmHg 23%
    10:00 +26°C° 0 mm 1 mps 600 mmHg 21%
    11:00 +28°C° 0 mm 1 mps 600 mmHg 18%
    12:00 +29°C° 0 mm 1 mps 600 mmHg 16%
    13:00 +30°C° 0 mm 1 mps 600 mmHg 14%
    14:00 +31°C° 0 mm 2 mps 600 mmHg 12%
    15:00 +32°C° 0 mm 2 mps 600 mmHg 11%
    16:00 +33°C° 0 mm 3 mps 600 mmHg 11%
    17:00 +33°C° 0 mm 3 mps 600 mmHg 10%
    18:00 +31°C° 0 mm 3 mps 600 mmHg 13%
    19:00 +29°C° 0 mm 3 mps 599 mmHg 16%
    20:00 +28°C° 0 mm 2 mps 599 mmHg 18%
    21:00 +27°C° 0 mm 2 mps 599 mmHg 23%
    22:00 +26°C° 0 mm 2 mps 599 mmHg 28%
    23:00 +25°C° 0 mm 2 mps 599 mmHg 32%

    25 August, Sunday

    Time Temperature Precipitation Wind Pressure Humidity
    00:00 +24°C° 0 mm 2 mps 598 mmHg 34%
    01:00 +23°C° 0 mm 1 mps 598 mmHg 36%
    02:00 +22°C° 0 mm 1 mps 597 mmHg 38%
    03:00 +21°C° 0 mm 1 mps 597 mmHg 39%
    04:00 +18°C° 0 mm 0 mps 597 mmHg 39%
    05:00 +18°C° 0 mm 0 mps 596 mmHg 39%
    06:00 +19°C° 0 mm 0 mps 597 mmHg 35%
    07:00 +21°C° 0 mm 0 mps 598 mmHg 31%
    08:00 +22°C° 0 mm 0 mps 599 mmHg 27%
    09:00 +26°C° 0 mm 1 mps 599 mmHg 25%
    10:00 +27°C° 0 mm 1 mps 600 mmHg 22%
    11:00 +29°C° 0 mm 1 mps 600 mmHg 19%
    12:00 +30°C° 0 mm 1 mps 600 mmHg 16%
    13:00 +31°C° 0 mm 2 mps 600 mmHg 14%
    14:00 +32°C° 0 mm 2 mps 601 mmHg 11%
    15:00 +33°C° 0 mm 3 mps 601 mmHg 10%
    16:00 +33°C° 0 mm 4 mps 600 mmHg 9%
    17:00 +33°C° 0 mm 5 mps 600 mmHg 8%
    18:00 +32°C° 0 mm 4 mps 600 mmHg 13%
    19:00 +29°C° 0 mm 4 mps 600 mmHg 17%
    20:00 +27°C° 0 mm 3 mps 600 mmHg 22%
    21:00 +26°C° 0 mm 3 mps 599 mmHg 29%
    22:00 +25°C° 0 mm 2 mps 599 mmHg 35%
    23:00 +24°C° 0 mm 1 mps 599 mmHg 42%

    26 August, Monday

    Time Temperature Precipitation Wind Pressure Humidity
    00:00 +24°C° 0 mm 1 mps 599 mmHg 45%
    01:00 +23°C° 0 mm 1 mps 599 mmHg 48%
    02:00 +22°C° 0 mm 1 mps 598 mmHg 50%
    03:00 +20°C° 0 mm 0 mps 598 mmHg 51%
    04:00 +19°C° 0 mm 0 mps 598 mmHg 53%
    05:00 +18°C° 0 mm 0 mps 598 mmHg 54%
    06:00 +20°C° 0 mm 0 mps 598 mmHg 48%
    07:00 +21°C° 0 mm 0 mps 599 mmHg 43%
    08:00 +23°C° 0 mm 0 mps 600 mmHg 38%
    09:00 +24°C° 0 mm 0 mps 601 mmHg 32%
    10:00 +28°C° 0 mm 1 mps 601 mmHg 27%
    11:00 +29°C° 0 mm 1 mps 601 mmHg 22%
    12:00 +30°C° 0 mm 1 mps 601 mmHg 19%
    13:00 +31°C° 0 mm 1 mps 601 mmHg 16%
    14:00 +32°C° 0 mm 2 mps 602 mmHg 13%
    15:00 +32°C° 0 mm 2 mps 601 mmHg 12%
    16:00 +32°C° 0 mm 2 mps 601 mmHg 12%
    17:00 +34°C° 0 mm 3 mps 601 mmHg 11%
    18:00 +31°C° 0 mm 3 mps 601 mmHg 15%
    19:00 +29°C° 0 mm 3 mps 600 mmHg 19%
    20:00 +28°C° 0 mm 3 mps 600 mmHg 23%
    21:00 +27°C° 0 mm 2 mps 600 mmHg 28%
    22:00 +26°C° 0 mm 1 mps 600 mmHg 32%
    23:00 +24°C° 0 mm 1 mps 600 mmHg 37%

    27 August, Tuesday

    Time Temperature Precipitation Wind Pressure Humidity
    00:00 +24°C° 0 mm 1 mps 599 mmHg 39%
    01:00 +23°C° 0 mm 1 mps 599 mmHg 41%
    02:00 +20°C° 0 mm 0 mps 598 mmHg 43%
    03:00 +20°C° 0 mm 0 mps 598 mmHg 43%
    04:00 +19°C° 0 mm 0 mps 598 mmHg 43%
    05:00 +18°C° 0 mm 0 mps 597 mmHg 42%
    06:00 +22°C° 0 mm 1 mps 598 mmHg 37%
    07:00 +23°C° 0 mm 1 mps 599 mmHg 32%
    08:00 +24°C° 0 mm 1 mps 599 mmHg 27%
    09:00 +26°C° 0 mm 1 mps 600 mmHg 24%
    10:00 +27°C° 0 mm 1 mps 600 mmHg 21%
    11:00 +29°C° 0 mm 1 mps 601 mmHg 17%
    12:00 +30°C° 0 mm 1 mps 601 mmHg 15%
    13:00 +31°C° 0 mm 2 mps 601 mmHg 13%
    14:00 +32°C° 0 mm 2 mps 601 mmHg 11%
    15:00 +32°C° 0 mm 2 mps 600 mmHg 11%
    16:00 +32°C° 0 mm 2 mps 600 mmHg 11%
    17:00 +34°C° 0 mm 3 mps 600 mmHg 11%
    18:00 +31°C° 0 mm 3 mps 600 mmHg 13%
    19:00 +30°C° 0 mm 3 mps 600 mmHg 16%
    20:00 +28°C° 0 mm 4 mps 600 mmHg 18%
    21:00 +27°C° 0 mm 3 mps 600 mmHg 20%
    22:00 +26°C° 0 mm 2 mps 599 mmHg 21%
    23:00 +25°C° 0 mm 1 mps 599 mmHg 23%
    Show more